Miscellaneous Local Product
Issued by NWS North Platte, NE

Home | Current Version | Previous Version | Text Only | Print | Product List | Glossary On
Versions: 1 2 3 4 5 6 7 8 9 10 11 12 13 14 15 16 17 18 19 20 21 22 23 24 25 26 27 28 29 30 31 32 33 34 35 36 37 38 39 40 41 42 43 44 45 46 47 48 49 50
000
AXUS43 KLBF 192210
MISLBF


WESTERN AND NORTH CENTRAL NEBRASKA HOURLY WEATHER ROUNDUP
NATIONAL WEATHER SERVICE NORTH PLATTE NE
500 PM CDT SUN OCT 19 2014

***STATIONS NOT REPORTING VARIABLES SUCH AS SKY/WEATHER OR
PRESSURE ARE PROVIDED BY THE NEBRASKA DEPARTMENT OF
ROADS...RAWS...AND APRS NETWORKS...AND ARE NOT UNDER
NATIONAL WEATHER SERVICE QUALITY CONTROL***

...OBSERVATIONS IN AND NEAR THE EASTERN PANHANDLE OF NEBRASKA...

CITY           SKY/WX    TMP DP  RH WIND       PRES   REMARKS
PINE RIDGE     SUNNY     74  37  26 CALM      30.04R
CHADRON        SUNNY     73  39  29 CALM      30.04R
ALLIANCE       SUNNY     74  34  23 E7        30.05R
SIDNEY         SUNNY     73  37  27 NE7       30.07S
WHITECLAY        N/A     73  39  28 W5          N/A
RUSHVILLE        N/A     76  26  16 NE9         N/A
CRESCENT LAKE    N/A     76  32  20 NE6         N/A
LISCO            N/A     80  21  11 NE5         N/A
BIG SPRINGS      N/A     77  40  26 NE3         N/A
LEWELLEN         N/A     87  24  10 NE7         N/A
$$

...OBSERVATIONS IN NORTH CENTRAL NEBRASKA...

CITY           SKY/WX    TMP DP  RH WIND       PRES   REMARKS
VALENTINE      SUNNY     78  35  21 N12       29.99R
THEDFORD       SUNNY     77  39  25 N10       30.00S
AINSWORTH      SUNNY     75  36  23 N9        29.98S
O`NEILL        SUNNY     76  43  30 N9        29.95S
ORD            SUNNY     75  43  31 VRB3      29.94S
BROKEN BOW     SUNNY     79  43  27 N5        29.97S
BROWNLEE         N/A     82  30  15 SE12        N/A
SPRINGVIEW       N/A     77  41  27 N3G13       N/A
BREWSTER         N/A     82  38  20 N12         N/A
ROSE             N/A     80  42  25 NE5         N/A
NEWPORT          N/A     78  40  24 S6          N/A
SARGENT          N/A     77  43  29 CALM        N/A
COMSTOCK         N/A     82  42  24 E5          N/A
CHAMBERS         N/A     74  42  31 N3          N/A
$$

...OBSERVATIONS IN SOUTHWEST NEBRASKA AND FAR NORTHEAST COLORADO...

CITY           SKY/WX    TMP DP  RH WIND       PRES   REMARKS
WRAY           FAIR      78  34  20 NE10      30.03R
HOLYOKE        FAIR      79  36  21 NE8       30.03S
IMPERIAL       MOSUNNY   77  39  25 NE12      30.00S
OGALLALA       SUNNY     79  35  20 E6        30.00S HAZE
NORTH PLATTE   SUNNY     77  37  23 NE8       29.98S
MCCOOK         MOSUNNY   73  47  39 E7        29.98S
LEXINGTON      SUNNY     73  48  41 CALM      29.98S
PAXTON           N/A     78  38  23 NE8         N/A
SUTHERLAND       N/A     83  30  15 E7          N/A
BRADY            N/A     77  46  33 CALM        N/A
GOTHENBURG       N/A     76  42  29 CALM        N/A
CALLAWAY         N/A     77  49  36 NE3         N/A
$$

...SOME WEATHER OBSERVATIONS FROM AROUND THE REGION...

CITY           SKY/WX    TMP DP  RH WIND       PRES   REMARKS
DENVER         MOSUNNY   74  29  19 E5        30.09F
LARAMIE        SUNNY     65  28  24 N8        30.19S
CHEYENNE       SUNNY     68  30  24 E8        30.14S
SCOTTSBLUFF    SUNNY     74  44  34 CALM      30.05S
RAPID CITY     SUNNY     72  40  31 N9        30.03S
PIERRE         SUNNY     75  39  27 NW16G28   29.93R
WINNER         FAIR      78  37  22 N10       29.96R
SIOUX FALLS    SUNNY     73  42  32 NW13      29.88S
OMAHA          MOSUNNY   72  47  40 SW9       29.93F
GRAND ISLAND   SUNNY     75  49  39 W12       29.96S
KANSAS CITY    MOSUNNY   67  48  50 SW9       30.01F
WICHITA        CLOUDY    72  51  47 S15G22    30.00F
HAYS           SUNNY     73  50  43 S12       29.96S
LIBERAL        SUNNY     79  52  38 SW8       29.97F
GOODLAND       SUNNY     76  41  28 NE10      30.02R
$$



USA.gov is the U.S. government's official web portal to all federal, state and local government web resources and services.